Regional Weather Roundup
Issued by NWS

Home | Current Version | Previous Version | Text Only | Print | Product List | Glossary On
Versions: 1 2 3 4 5 6 7 8 9 10 11 12 13 14 15 16 17 18 19 20 21 22 23 24 25 26 27 28 29 30 31 32 33 34 35 36 37 38 39 40 41 42 43 44 45 46 47 48 49 50
000
ASUS42 KFFC 301403
RWRGA
WEATHER ROUNDUP FOR GEORGIA
NATIONAL WEATHER SERVICE PEACHTREE CITY GA
1000 AM EDT SAT AUG 30 2014

NOTE: "FAIR" INDICATES FEW OR NO CLOUDS BELOW 12,000 FEET WITH NO
SIGNIFICANT WEATHER AND/OR OBSTRUCTIONS TO VISIBILITY.

* = USE WITH CAUTION. THE STATIONS MARKED WITH AN ASTERISK MAY NOT
REPORT WEATHER SUCH AS PRECIPITATION, FOG, OR THUNDER AND ARE NOT
QUALITY CONTROLLED BY NWS.

THE REMARK "TC" DENOTES TEMPERATURE READING IN DEGREES CELSIUS.

GAZ001>058-301500-
NORTH GEORGIA

CITY           SKY/WX    TMP DP  RH WIND       PRES   REMARKS
ATLANTA        PTSUNNY   79  71  76 S3        30.17S
ATHENS         SUNNY     80  68  66 CALM      30.18S
CHAMBLEE       PTSUNNY   79  67  66 VRB3      30.17S
PEACHTREE CITY MOSUNNY   80  73  79 VRB5      30.17S
ROME           PTSUNNY   78  69  73 CALM      30.13S
WEST ATLANTA   MOSUNNY   77  69  76 CALM      30.16S
GAINESVILLE    SUNNY     76  68  76 E10       30.21S
CARTERSVILLE   MOSUNNY   79  68  69 VRB6      30.15S


CITY           SKY/WX    TMP DP  RH WIND       PRES   REMARKS
DALTON*        MOSUNNY   79  68  69 S6        30.14S
LAWRENCEVILLE* SUNNY     79  63  57 E8        30.18R
MARIETTA       PTSUNNY   78  70  75 SE7       30.17S
KENNESAW*      MOSUNNY   77  66  69 E6        30.18S
$$

GAZ059>098-102>109-301500-
CENTRAL GEORGIA

CITY           SKY/WX    TMP DP  RH WIND       PRES   REMARKS
AUGUSTA-BUSH   SUNNY     82  74  76 SE7       30.17S
AUGUSTA-DANIEL PTSUNNY   81  74  79 SE5       30.19R
COLUMBUS       CLOUDY    79  74  84 E5        30.14S
MACON          SUNNY     82  74  76 CALM      30.15S
ROBINS AFB     SUNNY     82  74  77 SE6       30.15S


CITY           SKY/WX    TMP DP  RH WIND       PRES   REMARKS
LAGRANGE*      MOSUNNY   85  77  77 SW5       30.15S HX  96
SYLVANIA*      SUNNY     77  71  81 E5        30.18S
MILLEDGEVILLE* SUNNY     82  77  83 CALM      30.16R HX  91
$$

GAZ099>101-110>166-301500-
SOUTH GEORGIA

CITY           SKY/WX    TMP DP  RH WIND       PRES   REMARKS
SAVANNAH       MOSUNNY   86  75  69 E8        30.17R HX  95
VALDOSTA       MOSUNNY   82  75  79 S3        30.15R
ALMA           MOSUNNY   82  74  76 SE3       30.16R
ST SIMONS      CLOUDY    83  75  77 S6        30.16R HX  90
FT STEWART     SUNNY     84  75  74 SE5       30.16R HX  92
ALBANY         CLOUDY    78  76  93 CALM      30.16R FOG
HUNTER AFB     MOSUNNY   85  76  74 E7        30.15R HX  93
BRUNSWICK      PTSUNNY   86  73  66 S3        30.17R HX  93


CITY           SKY/WX    TMP DP  RH WIND       PRES   REMARKS
BAINBRIDGE*    CLOUDY    81  81 100 CALM      30.14R HX  91
MOULTRIE*      MOSUNNY   81  77  89 CALM      30.15S
VIDALIA*         N/A     84  77  79 E3        30.17R HX  94
WAYCROSS*      CLOUDY    85  78  80 CALM      30.17R HX  95
DOUGLAS*       MOSUNNY   86  75  70 CALM      30.17S HX  95
$$


USA.gov is the U.S. government's official web portal to all federal, state and local government web resources and services.